Location: Saint-Restitut
(44.3351°N, 4.7915°E)
Time: 03:17:59
(UTC+00:00)

IRIDIUM 114 - Pass Details

Date: 03 February 2023
Orbit: 776 x 779 km, 86.4° (Epoch: 27 March)

Event Time Altitude Azimuth Distance (km) Brightness Sun altitude
Rises 18:36:09 0° 356° (N) 3,275 7.6 -18.7°
Reaches altitude 10° 18:38:31 10° 356° (N) 2,343 6.8 -19.2°
Maximum altitude 18:43:46 85° 269° (W) 789 4.3 -20.1°
Drops below altitude 10° 18:48:59 10° 181° (S) 2,323 6.8 -21.0°
Sets 18:51:19 0° 181° (S) 3,246 7.6 -21.4°
